EW5295 Weather Reports


time (UTC)temp
C
wind
direction
speed
KPH
gust
KPH
rain 1hr
cm
rain 24hr
cm
rain mn
cm
humidity
%
barometer
mb
20260504120119 11 143 0.0 1.6 0.00 0.00 0.00 86 1008.6
20260504044553 22 139 0.0 1.6 0.00 0.00 0.00 42 1006.6
20260504043010 22 134 0.0 0.0 0.00 0.00 0.00 44 1006.6
20260504040028 23 134 0.0 1.6 0.00 0.00 0.00 41 1006.3
20260504034547 24 134 0.0 1.6 0.00 0.00 0.00 41 1006.2
20260504031552 26 135 0.0 1.6 0.00 0.00 0.00 40 1005.9
20260504030036 26 145 0.0 1.6 0.00 0.00 0.00 36 1005.9
20260504024536 27 226 0.0 1.6 0.00 0.00 0.00 34 1005.8
20260504023043 28 162 0.0 1.6 0.00 0.00 0.00 31 1005.8
20260504021552 28 147 0.0 1.6 0.00 0.00 0.00 30 1005.8
20260504020039 28 113 0.0 1.6 0.00 0.00 0.00 28 1005.9
20260504014517 29 146 0.0 1.6 0.00 0.00 0.00 28 1005.9
20260504013019 30 242 0.0 1.6 0.00 0.00 0.00 27 1006.0
20260504010020 30 182 0.0 1.6 0.00 0.00 0.00 26 1006.2
20260504001527 31 114 0.0 1.6 0.00 0.00 0.00 20 1006.4
20260503231550 32 152 0.0 3.2 0.00 0.00 0.00 21 1007.0
20260503231527 32 151 0.0 3.2 0.00 0.00 0.00 23 1007.0
20260503211514 31 237 0.0 3.2 0.00 0.00 0.00 25 1008.7
20260503210028 31 148 0.0 3.2 0.00 0.00 0.00 25 1008.9
20260503193044 28 139 0.0 3.2 0.00 0.00 0.00 34 1010.0
20260503184548 26 166 0.0 3.2 0.00 0.00 0.00 42 1010.4
20260503183020 26 113 0.0 4.8 0.00 0.00 0.00 41 1010.6
20260503171520 21 143 0.0 3.2 0.00 0.00 0.00 56 1011.0